KF5PJP Weather Reports


Display with metric or nautical units.
time (UTC)temp
F
wind
direction
speed
MPH
gust
MPH
rain 1hr
in
rain 24hr
in
rain mn
in
humidity
%
barometer
mb
20260506011917 79 93 0.0 0.0 0.00 0.00 0.00 79 1005.4
20260506010903 80 93 0.0 0.0 0.00 0.00 0.00 78 1005.2
20260506005845 80 93 0.0 2.0 0.00 0.00 0.00 77 1005.1
20260506005407 80 99 0.0 1.0 0.00 0.00 0.00 77 1005.0
20260506004416 81 70 0.0 0.0 0.00 0.00 0.00 76 1004.7
20260506003951 81 70 0.0 0.0 0.00 0.00 0.00 76 1004.6
20260506003459 81 64 0.0 1.0 0.00 0.00 0.00 75 1004.6
20260506002914 81 64 0.0 8.0 0.00 0.00 0.00 75 1004.6
20260506002441 82 65 0.0 8.0 0.00 0.00 0.00 75 1004.5
20260506001844 82 87 1.0 2.0 0.00 0.00 0.00 74 1004.6
20260506001416 82 61 0.0 2.0 0.00 0.00 0.00 74 1004.6
20260506000934 82 61 0.0 4.0 0.00 0.00 0.00 74 1004.7
20260506000358 83 87 1.0 4.0 0.00 0.00 0.00 73 1004.7
20260505235410 83 259 1.0 2.0 0.00 0.00 0.00 73 1004.6
20260505234406 83 97 0.0 2.0 0.00 0.00 0.00 72 1004.6
20260505233401 83 92 1.0 4.0 0.00 0.00 0.00 71 1004.5
20260505232930 83 77 0.0 3.0 0.00 0.00 0.00 71 1004.5
20260505231902 84 266 0.0 2.0 0.00 0.00 0.00 70 1004.5
20260505231435 84 90 0.0 9.0 0.00 0.00 0.00 71 1004.4
20260505230935 84 74 2.0 9.0 0.00 0.00 0.00 70 1004.5
20260505230343 84 86 1.0 6.0 0.00 0.00 0.00 70 1004.3
20260505225353 85 348 1.0 5.0 0.00 0.00 0.00 69 1004.3
20260505224857 85 83 2.0 7.0 0.00 0.00 0.00 69 1004.3
20260505224434 85 246 1.0 8.0 0.00 0.00 0.00 69 1004.2
20260505222902 85 47 1.0 3.0 0.00 0.00 0.00 68 1004.2
20260505221916 86 112 1.0 4.0 0.00 0.00 0.00 67 1004.0
20260505220921 86 75 1.0 9.0 0.00 0.00 0.00 67 1004.1
20260505215915 87 83 2.0 9.0 0.00 0.00 0.00 67 1004.3
20260505214926 86 82 1.0 5.0 0.00 0.00 0.00 67 1004.5
20260505214353 87 49 1.0 5.0 0.00 0.00 0.00 68 1004.6
20260505213921 86 114 2.0 6.0 0.00 0.00 0.00 67 1004.7
20260505212911 86 94 1.0 5.0 0.00 0.00 0.00 69 1004.8
20260505211851 84 87 1.0 7.0 0.00 0.00 0.00 71 1005.0
20260505211425 84 114 1.0 5.0 0.00 0.00 0.00 70 1004.9
20260505210844 84 98 1.0 8.0 0.00 0.00 0.00 70 1005.0
20260505210414 84 90 2.0 8.0 0.00 0.00 0.00 70 1005.0
20260505205400 83 61 1.0 4.0 0.00 0.00 0.00 72 1005.1
20260505204935 83 63 1.0 6.0 0.00 0.00 0.00 71 1005.1
20260505204356 83 68 1.0 8.0 0.00 0.00 0.00 72 1005.1
20260505203401 83 57 3.0 9.0 0.00 0.00 0.00 70 1005.1
20260505202926 83 68 2.0 8.0 0.00 0.00 0.00 70 1005.2
20260505202405 84 95 2.0 7.0 0.00 0.00 0.00 70 1005.4
20260505201409 83 46 2.0 8.0 0.00 0.00 0.00 70 1005.4
20260505200415 83 153 3.0 11.0 0.00 0.00 0.00 72 1005.5
20260505195411 82 88 1.0 7.0 0.00 0.00 0.00 73 1005.6
20260505194847 82 74 3.0 12.0 0.00 0.00 0.00 71 1005.7
20260505194422 82 105 4.0 12.0 0.00 0.00 0.00 72 1005.7
20260505193842 82 86 1.0 7.0 0.00 0.00 0.00 74 1005.8
20260505193425 82 69 2.0 7.0 0.00 0.00 0.00 74 1005.8
20260505192845 81 107 2.0 11.0 0.00 0.00 0.00 74 1005.8
20260505192423 81 41 4.0 11.0 0.00 0.00 0.00 74 1005.7
20260505191408 81 42 2.0 8.0 0.00 0.00 0.00 74 1005.8
20260505190927 81 90 2.0 8.0 0.00 0.00 0.00 74 1006.0
20260505185908 81 87 1.0 7.0 0.00 0.00 0.00 75 1005.9
20260505185436 81 84 1.0 6.0 0.00 0.00 0.00 75 1005.9
20260505184857 80 56 2.0 4.0 0.00 0.00 0.00 76 1006.0
20260505184433 80 103 1.0 6.0 0.00 0.00 0.00 76 1006.0
20260505183849 80 97 3.0 7.0 0.00 0.00 0.00 75 1006.1
20260505182902 80 101 1.0 12.0 0.00 0.00 0.00 76 1006.1
20260505181900 80 65 3.0 9.0 0.00 0.00 0.00 74 1006.2
20260505180855 79 113 1.0 4.0 0.00 0.00 0.00 77 1006.1
20260505180422 78 308 1.0 7.0 0.00 0.00 0.00 78 1006.2
20260505175422 78 46 2.0 9.0 0.00 0.00 0.00 77 1006.5
20260505174937 78 129 3.0 10.0 0.00 0.00 0.00 76 1006.4
20260505173907 79 88 2.0 6.0 0.00 0.00 0.00 77 1006.4
20260505172924 78 61 2.0 10.0 0.00 0.00 0.00 77 1006.4
20260505171917 78 83 2.0 9.0 0.00 0.00 0.00 77 1006.5
20260505170916 78 46 2.0 11.0 0.00 0.00 0.00 78 1006.5
20260505170445 78 68 2.0 11.0 0.00 0.00 0.00 78 1006.5
20260505165855 78 94 1.0 9.0 0.00 0.00 0.00 80 1006.5
20260505165434 77 96 2.0 9.0 0.00 0.00 0.00 79 1006.5
20260505164858 77 98 0.0 8.0 0.00 0.00 0.00 80 1006.6
20260505164420 77 40 3.0 8.0 0.00 0.00 0.00 79 1006.5
20260505163400 76 91 3.0 9.0 0.00 0.00 0.00 80 1006.7
20260505162930 76 111 2.0 9.0 0.00 0.00 0.00 81 1006.7
20260505162346 76 84 2.0 9.0 0.00 0.00 0.00 80 1006.8
20260505161920 75 74 2.0 8.0 0.00 0.00 0.00 81 1006.7
20260505161423 75 49 3.0 8.0 0.00 0.00 0.00 81 1006.6
20260505160932 75 55 1.0 8.0 0.00 0.00 0.00 82 1006.7
20260505160457 74 27 2.0 13.0 0.00 0.00 0.00 82 1006.6
20260505152901 73 343 2.0 11.0 0.00 0.00 0.00 83 1006.3
20260505151917 73 132 2.0 7.0 0.00 0.00 0.00 83 1006.5
20260505150904 73 36 1.0 10.0 0.00 0.00 0.00 83 1006.6
20260505124346 70 98 1.0 6.0 0.00 0.00 0.00 88 1006.5
20260505123923 70 347 2.0 5.0 0.00 0.00 0.00 87 1006.3
20260505123345 70 67 2.0 5.0 0.00 0.00 0.00 87 1006.3
20260505122914 70 63 0.0 5.0 0.00 0.00 0.00 87 1006.2
20260505121916 70 126 2.0 6.0 0.00 0.00 0.00 87 1006.1
20260505120908 70 53 2.0 8.0 0.00 0.00 0.00 87 1006.1
20260505115847 70 96 0.0 5.0 0.00 0.00 0.00 87 1005.8
20260505115432 70 58 2.0 7.0 0.00 0.00 0.00 87 1005.7
20260505114411 70 76 1.0 7.0 0.00 0.00 0.00 87 1005.7
20260505113927 70 92 2.0 7.0 0.00 0.00 0.00 87 1005.7
20260505113454 70 92 1.0 4.0 0.00 0.00 0.00 87 1005.6
20260505112843 70 121 0.0 4.0 0.00 0.00 0.00 87 1005.7
20260505111355 69 77 0.0 7.0 0.00 0.00 0.00 87 1005.8
20260505110346 69 69 1.0 12.0 0.00 0.00 0.00 86 1005.8
20260505101849 69 61 1.0 7.0 0.00 0.00 0.00 87 1005.6
20260505101430 69 59 1.0 7.0 0.00 0.00 0.00 86 1005.6
20260505100852 69 78 1.0 7.0 0.00 0.00 0.00 86 1005.6
20260505100434 68 33 1.0 7.0 0.00 0.00 0.00 87 1005.7
20260505095409 68 74 1.0 4.0 0.00 0.00 0.00 86 1005.5
20260505094940 68 63 0.0 4.0 0.00 0.00 0.00 87 1005.5
20260505093906 68 53 1.0 11.0 0.00 0.00 0.00 87 1005.5
20260505093341 68 39 0.0 3.0 0.00 0.00 0.00 87 1005.5
20260505092907 68 65 1.0 3.0 0.00 0.00 0.00 87 1005.6
20260505092440 68 281 1.0 5.0 0.00 0.00 0.00 87 1005.7
20260505091856 68 68 1.0 7.0 0.00 0.00 0.00 87 1005.8
20260505091426 68 18 1.0 7.0 0.00 0.00 0.00 87 1005.7
20260505090849 68 69 1.0 5.0 0.00 0.00 0.00 87 1005.8
20260505090435 68 59 0.0 3.0 0.00 0.00 0.00 87 1005.9
20260505085858 68 27 1.0 3.0 0.00 0.00 0.00 87 1005.8
20260505085415 68 245 1.0 3.0 0.00 0.00 0.00 87 1005.9
20260505084357 68 346 0.0 9.0 0.00 0.00 0.00 87 1006.1
20260505083933 67 76 1.0 3.0 0.00 0.00 0.00 87 1006.1
20260505082932 67 273 0.0 3.0 0.00 0.00 0.00 87 1006.2
20260505082350 67 59 0.0 3.0 0.00 0.00 0.00 87 1006.2
20260505081927 67 113 1.0 3.0 0.00 0.00 0.00 87 1006.3
20260505081353 67 151 0.0 5.0 0.00 0.00 0.00 87 1006.3
20260505080411 67 132 0.0 2.0 0.00 0.00 0.00 87 1006.3
20260505075840 67 255 0.0 1.0 0.00 0.00 0.00 87 1006.4
20260505075411 67 302 0.0 1.0 0.00 0.00 0.00 87 1006.6
20260505074956 67 85 0.0 3.0 0.00 0.00 0.00 87 1006.5
20260505074344 67 82 1.0 3.0 0.00 0.00 0.00 86 1006.6
20260505073925 67 79 0.0 3.0 0.00 0.00 0.00 86 1006.6
20260505072910 67 57 1.0 3.0 0.00 0.00 0.00 86 1006.7
20260505071853 67 234 0.0 5.0 0.00 0.00 0.00 86 1006.9
20260505071433 67 277 1.0 5.0 0.00 0.00 0.00 86 1006.9
20260505070849 68 150 0.0 3.0 0.00 0.00 0.00 85 1007.0
20260505065846 68 115 0.0 2.0 0.00 0.00 0.00 85 1007.1
20260505065346 68 60 1.0 2.0 0.00 0.00 0.00 85 1007.0
20260505064905 68 130 0.0 2.0 0.00 0.00 0.00 85 1007.0
20260505064354 68 108 0.0 2.0 0.00 0.00 0.00 85 1007.0
20260505063916 68 35 0.0 2.0 0.00 0.00 0.00 84 1007.1
20260505063401 68 115 0.0 2.0 0.00 0.00 0.00 84 1007.2
20260505062913 68 15 0.0 1.0 0.00 0.00 0.00 84 1007.3
20260505062353 68 69 0.0 2.0 0.00 0.00 0.00 84 1007.4
20260505061910 68 96 0.0 2.0 0.00 0.00 0.00 84 1007.5
20260505061358 68 323 0.0 1.0 0.00 0.00 0.00 83 1007.5
20260505060854 68 256 0.0 2.0 0.00 0.00 0.00 83 1007.6
20260505060356 68 81 0.0 2.0 0.00 0.00 0.00 83 1007.5
20260505055852 69 30 0.0 0.0 0.00 0.00 0.00 82 1007.4
20260505055344 69 35 0.0 2.0 0.00 0.00 0.00 82 1007.5
20260505054917 69 38 0.0 2.0 0.00 0.00 0.00 82 1007.4
20260505054357 69 254 0.0 3.0 0.00 0.00 0.00 81 1007.5
20260505053856 69 209 0.0 4.0 0.00 0.00 0.00 81 1007.5
20260505053356 69 252 0.0 4.0 0.00 0.00 0.00 81 1007.6
20260505052840 69 155 0.0 2.0 0.00 0.00 0.00 81 1007.7
20260505052405 69 260 0.0 2.0 0.00 0.00 0.00 80 1007.6
20260505051859 69 27 0.0 2.0 0.00 0.00 0.00 80 1007.5
20260505051356 70 217 0.0 2.0 0.00 0.00 0.00 80 1007.6
20260505050845 70 325 0.0 2.0 0.00 0.00 0.00 80 1007.8
20260505050359 70 69 0.0 3.0 0.00 0.00 0.00 79 1007.9
20260505041420 71 263 0.0 0.0 0.00 0.00 0.00 77 1007.8
20260505040842 71 198 0.0 2.0 0.00 0.00 0.00 76 1007.8
20260505035856 71 215 0.0 2.0 0.00 0.00 0.00 76 1007.9
20260505035434 71 86 0.0 2.0 0.00 0.00 0.00 75 1007.9
20260505034843 71 132 0.0 2.0 0.00 0.00 0.00 75 1007.9
20260505034422 71 58 0.0 2.0 0.00 0.00 0.00 75 1007.8
20260505033933 71 97 0.0 0.0 0.00 0.00 0.00 74 1007.9
20260505032909 72 97 0.0 0.0 0.00 0.00 0.00 73 1007.8
20260505031855 72 100 0.0 1.0 0.00 0.00 0.00 72 1007.6
20260505031428 72 100 0.0 1.0 0.00 0.00 0.00 72 1007.7
20260505030838 72 100 0.0 1.0 0.00 0.00 0.00 71 1007.5
20260505025852 72 86 0.0 1.0 0.00 0.00 0.00 70 1007.6
20260505025426 72 238 0.0 1.0 0.00 0.00 0.00 70 1007.6
20260505024846 72 108 0.0 2.0 0.00 0.00 0.00 70 1007.5
20260505024414 72 281 0.0 2.0 0.00 0.00 0.00 70 1007.3
20260505023407 72 263 0.0 1.0 0.00 0.00 0.00 70 1007.4
20260505022357 72 117 0.0 1.0 0.00 0.00 0.00 69 1007.5
20260505021937 72 119 0.0 3.0 0.00 0.00 0.00 69 1007.4
20260505021457 73 109 0.0 3.0 0.00 0.00 0.00 69 1007.5
20260505020850 73 103 0.0 1.0 0.00 0.00 0.00 68 1007.6
20260505020427 73 103 0.0 1.0 0.00 0.00 0.00 68 1007.6
20260505015949 73 128 0.0 1.0 0.00 0.00 0.00 68 1007.6
20260505015345 73 86 0.0 1.0 0.00 0.00 0.00 67 1007.6
20260505014926 73 86 0.0 1.0 0.00 0.00 0.00 67 1007.5
20260505014338 74 86 0.0 1.0 0.00 0.00 0.00 66 1007.5
20260505013903 74 86 0.0 2.0 0.00 0.00 0.00 66 1007.4
20260505013434 74 126 0.0 1.0 0.00 0.00 0.00 66 1007.3
20260505012939 74 62 0.0 1.0 0.00 0.00 0.00 65 1007.3
20260505012353 74 82 0.0 1.0 0.00 0.00 0.00 64 1007.3